Weather History for Cartagena, Colombia

Change the Weather History Date:

Friday, July 12, 2013

  Actual Average Record
Temperature  
Mean Temperature 84 °F -  
Max Temperature 91 °F 89 °F 91 °F (2006)
Min Temperature 78 °F 77 °F 73 °F (1999)
Cooling Degree Days 20    
Growing Degree Days 34 (Base 50)    
Moisture  
Dew Point 77 °F    
Average Humidity 79    
Maximum Humidity 94    
Minimum Humidity 52    
Precipitation  
Precipitation 0.00 in 0.14 in - ()
Sea Level Pressure  
Sea Level Pressure 29.84 in    
Wind  
Wind Speed 3 mph ()    
Max Wind Speed 9 mph    
Max Gust Speed -    
Visibility 6.2 miles    
Events      
Averages and records for this station are not official NWS values.
T = Trace of Precipitation, MM = Missing Value Source: Averaged Metar Reports

Daily Weather History Graph

Daily Weather History Graph

Search for Another Location

Airport:

Trip Planner

Search our weather history database for the weather conditions in past years. The results will help you decide how hot, cold, wet, or windy it might be!

Date:

Astronomy

Jul. 12, 2013 Rise Set
Actual Time 5:47 AM COT 6:28 PM COT
Civil Twilight 5:24 AM COT 6:51 PM COT
Nautical Twilight 4:57 AM COT 7:18 PM COT
Astronomical Twilight 4:30 AM COT 7:45 PM COT
Moon 9:09 AM COT (7/12) 9:35 PM COT (7/12)
Length of Visible Light 13h 27m
Length of Day
12h 41m
Waxing Crescent, 17% of the Moon is Illuminated
Jul 12
Waxing Crescent
Jul 15
First Quarter
Jul 22
Full
Jul 29
Last Quarter
Aug 6
New

Hourly Weather History & Observations

Time (COT) Temp. Heat Index Dew Point Humidity Pressure Visibility Wind Dir Wind Speed Gust Speed Precip Events Conditions
12:00 AM 80.6 °F 87.1 °F 77.0 °F 89% 29.88 in 6.2 mi Variable 2.3 mph - N/A   Unknown
1:00 AM 79 °F - 76 °F 89% 29.87 in 7 mi North 2.2 mph - -   Haze
1:00 AM 78.8 °F - 77.0 °F 94% 29.86 in 6.2 mi Variable 2.3 mph - N/A   Unknown
2:00 AM 78.8 °F - 75.2 °F 89% 29.86 in 6.2 mi Calm Calm - N/A   Unknown
3:00 AM 78.8 °F - 77.0 °F 94% 29.85 in 6.2 mi Calm Calm - N/A   Unknown
4:00 AM 78 °F - 76 °F 94% 29.86 in 7 mi Calm Calm - -   Haze
4:00 AM 78.8 °F - 77.0 °F 94% 29.85 in 6.2 mi Calm Calm - N/A   Scattered Clouds
5:00 AM 78.8 °F - 77.0 °F 94% 29.83 in 6.2 mi Calm Calm - N/A   Scattered Clouds
6:00 AM 80.6 °F 87.1 °F 77.0 °F 89% 29.84 in 6.2 mi Calm Calm - N/A   Scattered Clouds
7:00 AM 81 °F - 79 °F 91% 29.87 in 5 mi SSE 4.5 mph - -   Haze
7:00 AM 80.6 °F 88.1 °F 78.8 °F 94% 29.86 in 5.0 mi SSE 4.6 mph - N/A   Mostly Cloudy
8:00 AM 84.2 °F 96.1 °F 78.8 °F 84% 29.87 in 5.6 mi West 9.2 mph - N/A   Scattered Clouds
9:00 AM 86.0 °F 99.3 °F 78.8 °F 79% 29.87 in 5.6 mi SW 6.9 mph - N/A   Scattered Clouds
10:00 AM 88 °F - 76 °F 60% 29.88 in 6 mi South 8.9 mph - -   Haze
10:00 AM 87.8 °F 99.7 °F 77.0 °F 70% 29.87 in 6.2 mi South 9.2 mph - N/A   Scattered Clouds
11:00 AM 87.8 °F 102.5 °F 78.8 °F 75% 29.87 in 6.2 mi SSW 6.9 mph - N/A   Partly Cloudy
12:00 PM 89.6 °F 102.2 °F 77.0 °F 66% 29.86 in 6.2 mi SSW 9.2 mph - N/A   Partly Cloudy
1:00 PM 91 °F - 75 °F 52% 29.83 in 7 mi South 4.5 mph - -   Haze
1:00 PM 91.4 °F 102.5 °F 75.2 °F 59% 29.83 in 6.2 mi South 4.6 mph - N/A   Partly Cloudy
2:00 PM 91.4 °F 102.5 °F 75.2 °F 59% 29.83 in 6.2 mi South 4.6 mph - N/A   Partly Cloudy
3:00 PM 89.6 °F 104.7 °F 78.8 °F 70% 29.79 in 6.2 mi WSW 6.9 mph - N/A   Scattered Clouds
4:00 PM 89 °F - 77 °F 61% 29.80 in 7 mi WSW 4.5 mph - -   Haze
4:00 PM 89.6 °F 102.2 °F 77.0 °F 66% 29.79 in 6.2 mi WSW 4.6 mph - N/A   Scattered Clouds
5:00 PM 87.8 °F 99.7 °F 77.0 °F 70% 29.79 in 6.2 mi West 4.6 mph - N/A   Scattered Clouds
6:00 PM 86.0 °F 96.9 °F 77.0 °F 74% 29.78 in 6.2 mi North 4.6 mph - N/A   Scattered Clouds
7:00 PM 85 °F - 78 °F 75% 29.80 in 7 mi North 4.5 mph - -   Haze
7:00 PM 84.2 °F 96.1 °F 78.8 °F 84% 29.79 in 6.2 mi North 5.8 mph - N/A   Scattered Clouds
8:00 PM 84.2 °F 96.1 °F 78.8 °F 84% 29.79 in 6.2 mi NNE 3.5 mph - N/A   Scattered Clouds
9:00 PM 84.2 °F 98.3 °F 80.6 °F 89% 29.81 in 6.2 mi NE 5.8 mph - N/A   Scattered Clouds
10:00 PM 83 °F - 79 °F 83% 29.83 in 7 mi NE 1.2 mph - -   Haze
10:00 PM 82.4 °F 92.4 °F 78.8 °F 89% 29.82 in 6.2 mi Variable 2.3 mph - N/A   Scattered Clouds
11:00 PM 82.4 °F 90.9 °F 77.0 °F 84% 29.84 in 6.2 mi NW 4.6 mph - N/A   Scattered Clouds